ARIANE 3 DEB, 27027

Orbit data source: Space-Track

ARIANE 3 DEB, 27027 is space debris in HEO originally from a launch on Thu, 08 Sep 1988 UTC launched from the French Guiana (FRGUI). Debris objects in space refer to the collection of defunct objects orbiting the Earth. Examples of debris include non-operational satellites, rocket bodies, and fragments generated from explosions, collisions, or faulty payload assembly.

Loading next visibility...
Identifier
27027, 1988-081K
Orbit
HEO
Country
Flag of FRFR
Related business
Manufacturer
Unknown
Mission
Spacecraft
Bus & Motor
Unknown
Mass
Unknown
Launch date (UTC)
1988-09-08 (38 years ago)
Launch vehicle
Unknown
Launch site
French Guiana (FRGUI)
Object type
Payload
Rocket body
Debris
Shape & HBR
Unknown shape, 0.3 m
Radar Cross Section
Medium (>0.1 m² and <1 m²)

Expand to show TLE details & history
Last TLE update: 5 days ago

TLE from 5 days ago
0 ARIANE 3 DEB
1 27027U 88081K   26119.11781028 -.00000170  00000-0 -41732-2 0  9999
2 27027   8.5366 315.4329 7141076   0.3473 201.6549  2.21493922218156
Epoch: 2026-04-29T02:49Z
TLE epoch observation values (Epoch: 2026-04-29T02:49:38.808Z)
Latitude
-0.83496°
Longitude
-118.53904°
Altitude
35,773.658 km
Speed
1.697 km/s
True Right ascension
09h 23m 49s
True Declination
0° 50' 03"
Sunlit
Object was in daylight at epoch
Visualization orbit readout
Latitude
Unknown
Longitude
Unknown
Altitude
Unknown
Speed
Unknown
Apparent Right ascension
Unknown
Apparent Declination
Unknown
Sunlit
N/A
Visualization observer readout
Local Sidereal Time
17:42:31
Azimuth
Unknown
Elevation
Unknown
Doppler factor
Unknown
Orbital elements
Apogee altitude
36,242.462 km
Perigee altitude
730.463 km
Semi-major axis
24,864.6 km
Eccentricity
0.71411
Inclination
8.5366°
RAAN
315.4329°
Arg. of periapsis
0.3473°
True anomaly
185.19463°
Mean anomaly
201.6549°
Eccentric anomaly
192.67632°
Mean motion
0.55357 °/min
Orbital period
650.33 mins
BSTAR
-0.0041732
Loading maneuver chart data...
Computing Atmospheric mass density...
Loading historical data...
Loading historical data...
Loading historical data...
Loading historical data...
Loading historical data...
Loading historical data...
Loading historical data...

Documentation

Showing up to 5 results
|